User: anonymous   Login
Location: Unspecified
(0.0000°N, 0.0000°E)
Time: 09:09:53
(UTC+00:00)
Language:

Resurs 1-4 - Orbit

View from above orbital plane
View from above orbital plane
View from above satellite
View from above satellite

Ground track
Ground track

The orbit data is extracted from the following two-line orbital elements,

1 25394U 98043A   18109.81300510 -.00000060 +00000-0 -72854-5 0  9993
2 25394 098.5954 051.2389 0002247 108.1981 251.9443 14.24452646027999
Epoch (UTC): 19 April 2018 19:30:43
Eccentricity: 0.0002247
inclination: 98.5954°
perigee height: 809 km
apogee height: 812 km
right ascension of ascending node: 51.2389°
argument of perigee: 108.1981°
revolutions per day: 14.24452646
mean anomaly at epoch: 251.9443°
orbit number at epoch: 2799

The dashed part of the orbit path shows where the satellite is in the earth's shadow,  

DLR